星链-31226 (STARLINK-31226 )

导读 | 星芒AI

STARLINK-31226 是 SpaceX 星链计划中的一颗低轨通信卫星,属于第 11 批星链组网卫星(Batch 11)。该卫星于 2023 年 9 月 23 日由猎鹰 9 号火箭从美国佛罗里达州肯尼迪航天中心发射升空,进入近地轨道,用于扩展全球宽带互联网覆盖。星链卫星采用可再生推进系统和自动避碰技术,旨在提供低延迟、高速度的互联网服务,尤其服务于偏远地区。STARLINK-31226 与其他星链卫星协同工作,提升网络稳定性和服务质量。

基本信息
目录编号:
58858
目录名称:
STARLINK-31226
国际标识:
2024-019F
轨道中心:
EARTH
卫星名称:
星链-31226
卫星全名:
星链-31226 (STARLINK-31226 )
卫星状态:
在轨 (已飞行690 天)
发射日期:
2024-01-29 UTC
国别 :
美国 (US)
星等 :
--
轨道信息
数据来源 国际轨道数据
星历时间: 2025-12-19T14:47:10+0800
14小时前
查看轨道信息
半长轴: 6861.178km
偏心率: 0.0001022
轨道倾角: 43.003°
近地点辐角 269.370°
升交点赤经 343.153°
平近点角 90.704°
近地点: 482.339km
远地点: 483.743km
周期: 94.267分钟
每日圈数: 15.275828
详细信息
固有亮度:
5
最大亮度:
0.3
卫星平台:
Starlink v2.0 mini
覆盖范围:
全球
运营商:
太空探索技术公司
运营商所在国:
美国
制造商(研发单位):
太空探索技术公司
制造商所在国:
美国
使用方式:
暂无
卫星简介
星链(Starlink)计划是由太空探索技术公司(SpaceX)提出的一个巨型低轨卫星互联网星座项目,计划在2019年至2024年间在太空搭建由约1.2万颗卫星组成的“星链”网络,其中1584颗将部署在地球上空550千米处的近地轨道,并从2020年开始工作。该卫星仍在工作。
2D轨道图
3D轨道图
轨道高度分析图
轨道倾角分析图
轨道综合分析图
查看轨道综合分析图